Weather History for KFOA - September, 2012

Change the Weather History Date:

Thursday, September 13, 2012

  Actual Average (KEVV) Record (KEVV)
Temperature  
Mean Temperature 71 °F 70 °F  
Max Temperature 82 °F 83 °F 99 °F (1939)
Min Temperature 60 °F 58 °F 40 °F (1940)
Degree Days  
Heating Degree Days 0 1  
Month to date heating degree days 3  
Since 1 July heating degree days 4  
Cooling Degree Days 6 6  
Month to date cooling degree days 102  
Year to date cooling degree days 1301  
Growing Degree Days 21 (Base 50)    
Moisture  
Dew Point 63 °F    
Average Humidity 76    
Maximum Humidity 94    
Minimum Humidity 53    
Precipitation  
Precipitation 0.00 in 0.11 in 1.35 in (1977)
Month to date precipitation 1.31  
Year to date precipitation 32.23  
Snow  
Snow 0.00 in 0.00 in 0.00 in ()
Month to date snowfall 0.0  
Since 1 July snowfall 0.0  
Since 1 September snowfall 0.0  
Snow Depth -    
Sea Level Pressure  
Sea Level Pressure 30.22 in    
Wind  
Wind Speed 3 mph (SSW)    
Max Wind Speed 13 mph    
Max Gust Speed 17 mph    
Visibility 10 miles    
Events Rain    
T = Trace of Precipitation, MM = Missing Value Source: NWS Daily Summary

Daily Weather History Graph

Daily Weather History Graph

Search for Another Location

Airport or City:

Trip Planner

Search our weather history database for the weather conditions in past years. The results will help you decide how hot, cold, wet, or windy it might be!

Date:

Astronomy

Sep. 13, 2012 Rise Set
Actual Time 6:33 AM CDT 7:04 PM CDT
Civil Twilight 6:07 AM CDT 7:31 PM CDT
Nautical Twilight 5:35 AM CDT 8:02 PM CDT
Astronomical Twilight 5:03 AM CDT 8:34 PM CDT
Moon 3:54 AM CDT (9/13) 5:26 PM CDT (9/13)
Length of Visible Light 13h 23m
Length of Day
12h 30m
Waning Crescent, 7% of the Moon is Illuminated
Sep 13
Waning Crescent
Sep 15
New
Sep 22
First Quarter
Sep 29
Full
Oct 8
Last Quarter

Hourly Weather History & Observations

Time (CDT) Temp. Heat Index Dew Point Humidity Pressure Visibility Wind Dir Wind Speed Gust Speed Precip Events Conditions
12:15 AM 60.6 °F - 58.3 °F 92% 30.20 in 10.0 mi SE 4.6 mph - N/A   Clear
12:35 AM 62.1 °F - 58.3 °F 87% 30.20 in 10.0 mi ESE 5.8 mph - N/A   Scattered Clouds
1:14 AM 64.4 °F - 59.0 °F 83% 30.20 in 10.0 mi Calm Calm - N/A   Clear
1:35 AM 63.5 °F - 59.2 °F 86% 30.20 in 10.0 mi Calm Calm - N/A   Clear
1:55 AM 63.1 °F - 58.8 °F 86% 30.20 in 10.0 mi ESE 3.5 mph - N/A   Scattered Clouds
2:15 AM 61.7 °F - 59.0 °F 91% 30.20 in 10.0 mi Calm Calm - N/A   Mostly Cloudy
2:35 AM 61.7 °F - 59.5 °F 93% 30.20 in 10.0 mi Calm Calm - N/A   Scattered Clouds
2:55 AM 61.7 °F - 59.9 °F 94% 30.21 in 10.0 mi Calm Calm - N/A   Clear
3:15 AM 62.6 °F - 60.8 °F 94% 30.21 in 10.0 mi Calm Calm - N/A   Scattered Clouds
3:35 AM 63.0 °F - 60.4 °F 91% 30.21 in 10.0 mi Calm Calm - N/A   Mostly Cloudy
3:55 AM 62.6 °F - 60.1 °F 91% 30.22 in 10.0 mi Calm Calm - N/A   Mostly Cloudy
4:15 AM 63.7 °F - 61.0 °F 91% 30.22 in 10.0 mi Calm Calm - N/A   Scattered Clouds
4:35 AM 64.0 °F - 61.5 °F 91% 30.22 in 10.0 mi Calm Calm - N/A   Mostly Cloudy
4:55 AM 63.9 °F - 61.5 °F 92% 30.22 in 10.0 mi Calm Calm - N/A   Mostly Cloudy
5:15 AM 63.5 °F - 61.7 °F 94% 30.23 in 10.0 mi Calm Calm - N/A   Scattered Clouds
5:35 AM 62.6 °F - 61.0 °F 94% 30.23 in 10.0 mi Calm Calm - N/A   Mostly Cloudy
5:55 AM 62.6 °F - 60.8 °F 94% 30.23 in 10.0 mi Calm Calm - N/A   Mostly Cloudy
6:15 AM 63.5 °F - 61.3 °F 93% 30.24 in 10.0 mi Calm Calm - N/A   Mostly Cloudy
6:35 AM 63.5 °F - 61.5 °F 93% 30.24 in 10.0 mi ESE 3.5 mph - N/A   Mostly Cloudy
6:55 AM 63.5 °F - 61.3 °F 93% 30.25 in 10.0 mi Calm Calm - N/A   Scattered Clouds
7:15 AM 64.2 °F - 61.9 °F 92% 30.25 in 10.0 mi Calm Calm - N/A   Mostly Cloudy
7:35 AM 65.3 °F - 62.4 °F 90% 30.25 in 10.0 mi SE 3.5 mph - N/A   Scattered Clouds
7:55 AM 66.9 °F - 62.8 °F 87% 30.25 in 10.0 mi SE 3.5 mph - N/A   Clear
8:15 AM 68.9 °F - 63.1 °F 82% 30.24 in 10.0 mi SE 4.6 mph - N/A   Clear
8:35 AM 71.1 °F - 63.0 °F 75% 30.25 in 10.0 mi SE 5.8 mph - N/A   Clear
8:55 AM 72.7 °F - 63.0 °F 71% 30.25 in 10.0 mi SE 6.9 mph - N/A   Clear
9:15 AM 74.1 °F - 63.5 °F 69% 30.26 in 10.0 mi SSE 6.9 mph - N/A   Clear
9:35 AM 75.7 °F - 64.2 °F 67% 30.26 in 10.0 mi SE 6.9 mph - N/A   Clear
9:55 AM 75.4 °F - 63.3 °F 66% 30.26 in 10.0 mi SSE 8.1 mph - N/A   Clear
10:15 AM 74.5 °F - 63.0 °F 67% 30.27 in 10.0 mi SSE 8.1 mph - N/A   Clear
10:35 AM 73.9 °F - 62.8 °F 68% 30.26 in 10.0 mi SSE 8.1 mph - N/A   Clear
10:55 AM 73.9 °F - 62.8 °F 68% 30.26 in 10.0 mi South 5.8 mph - N/A   Clear
11:15 AM 74.3 °F - 63.3 °F 68% 30.25 in 10.0 mi South 5.8 mph - N/A   Clear
11:35 AM 75.2 °F - 63.0 °F 66% 30.25 in 10.0 mi Calm Calm - N/A   Clear
11:55 AM 77.5 °F - 63.9 °F 63% 30.25 in 10.0 mi SW 3.5 mph - N/A   Clear
12:15 PM 79.2 °F - 63.7 °F 59% 30.24 in 10.0 mi Calm Calm - N/A   Clear
12:35 PM 81.0 °F 82.9 °F 65.3 °F 59% 30.23 in 10.0 mi SW 5.8 mph - N/A   Clear
12:55 PM 80.2 °F 82.1 °F 65.3 °F 60% 30.23 in 10.0 mi Calm Calm - N/A   Clear
1:15 PM 81.0 °F 83.0 °F 65.7 °F 60% 30.21 in 10.0 mi North 3.5 mph - N/A   Scattered Clouds
1:35 PM 79.2 °F - 65.8 °F 64% 30.21 in 10.0 mi Calm Calm - N/A   Mostly Cloudy
1:55 PM 79.2 °F - 65.8 °F 64% 30.21 in 10.0 mi WNW 4.6 mph - N/A   Scattered Clouds
2:15 PM 81.0 °F 82.9 °F 65.5 °F 59% 30.20 in 10.0 mi NW 4.6 mph - N/A   Scattered Clouds
2:35 PM 80.6 °F 82.4 °F 65.3 °F 59% 30.20 in 10.0 mi WNW 4.6 mph - N/A   Clear
2:55 PM 81.0 °F 83.2 °F 66.2 °F 61% 30.20 in 10.0 mi NW 4.6 mph - N/A   Clear
3:15 PM 79.2 °F - 66.2 °F 64% 30.19 in 10.0 mi WNW 5.8 mph - N/A   Scattered Clouds
3:35 PM 77.9 °F - 66.2 °F 67% 30.20 in 10.0 mi West 8.1 mph - N/A   Mostly Cloudy
3:55 PM 78.6 °F - 67.6 °F 69% 30.19 in 10.0 mi NW 3.5 mph - N/A Rain Light Rain
4:15 PM 81.0 °F 82.6 °F 64.2 °F 57% 30.18 in 10.0 mi Calm Calm - N/A   Clear
4:35 PM 81.1 °F 82.7 °F 64.2 °F 56% 30.18 in 10.0 mi Calm Calm - N/A   Clear
4:55 PM 82.4 °F 83.9 °F 64.2 °F 54% 30.18 in 10.0 mi Calm Calm - N/A   Clear
5:15 PM 81.5 °F 82.9 °F 63.7 °F 55% 30.18 in 10.0 mi Calm Calm - N/A   Clear
5:35 PM 82.2 °F 83.5 °F 63.3 °F 53% 30.18 in 10.0 mi Calm Calm - N/A   Clear
5:55 PM 81.9 °F 83.2 °F 63.5 °F 54% 30.18 in 10.0 mi Calm Calm - N/A   Clear
6:15 PM 81.0 °F 82.9 °F 65.5 °F 59% 30.17 in 10.0 mi Calm Calm - N/A   Clear
6:35 PM 78.4 °F - 65.7 °F 65% 30.17 in 10.0 mi Calm Calm - N/A   Clear
6:55 PM 75.9 °F - 66.0 °F 71% 30.18 in 10.0 mi Calm Calm - N/A   Clear
7:15 PM 75.7 °F - 64.9 °F 69% 30.18 in 10.0 mi Calm Calm - N/A   Clear
7:35 PM 72.5 °F - 65.5 °F 79% 30.18 in 10.0 mi Calm Calm - N/A   Clear
7:55 PM 70.5 °F - 65.7 °F 85% 30.19 in 10.0 mi Calm Calm - N/A   Clear
8:15 PM 68.7 °F - 64.6 °F 87% 30.20 in 10.0 mi Calm Calm - N/A   Clear
8:35 PM 71.2 °F - 65.3 °F 81% 30.20 in 10.0 mi Calm Calm - N/A   Clear
8:55 PM 71.1 °F - 66.0 °F 84% 30.21 in 10.0 mi Calm Calm - N/A   Clear
9:15 PM 68.0 °F - 64.8 °F 89% 30.20 in 10.0 mi Calm Calm - N/A   Clear
9:35 PM 68.2 °F - 65.3 °F 90% 30.21 in 10.0 mi Calm Calm - N/A   Clear
9:55 PM 69.8 °F - 64.6 °F 83% 30.23 in 10.0 mi NW 11.5 mph 17.3 mph N/A   Mostly Cloudy
10:15 PM 68.5 °F - 60.3 °F 75% 30.23 in 10.0 mi NNW 12.7 mph - N/A   Mostly Cloudy
10:35 PM 67.1 °F - 59.0 °F 75% 30.24 in 10.0 mi NNW 10.4 mph - N/A   Clear
10:55 PM 66.2 °F - 58.5 °F 76% 30.24 in 10.0 mi NNW 6.9 mph - N/A   Clear
11:15 PM 65.8 °F - 58.1 °F 76% 30.25 in 10.0 mi NNW 6.9 mph - N/A   Scattered Clouds
11:35 PM 65.3 °F - 57.6 °F 76% 30.25 in 10.0 mi NNW 10.4 mph - N/A   Scattered Clouds
11:55 PM 64.4 °F - 57.0 °F 77% 30.25 in 10.0 mi NNW 4.6 mph - N/A   Clear